SCP
0 -0 -0 0 0 0 0 0 0 0 0 0 0 0 0 0 0 0 0 0 0 0 0 0 0 -0 -0 -0 -0 -0 -0 -0 -0 0 0 0 0 0 0 0 0 0 0 -0
0 -0 0 0 0 0 0 0 0 0 0 0 0 0 0 0 0 0 0 0 0 0 0 0 0 0 0 -0 -0 -0 -0 0 -0 0 0 0 0 0 0 0 0 0 0 -0
0 -0 0 0 0 0 0 0 0 0 0 0 0 0 0 0 0 0 0 0 0 0 0 0 0 0 -0 -0 -0 -0 -0 -0 0 -0 0 0 0 0 0 0 0 0 0 -0
0 0 0 0 0 0 0 0 0 0 0 0 0 0 0 0 0 0 0 0 0 0 0 0 0 0 0 0 0 -0 -0 -0 0 0 0 0 0 0 0 0 0 0 -0 -0
0 0 0 0 0 0 0 0 0 0 0 0 0 0 0 0 0 0 0 0 0 0 0 0 0 0 0 0 0 -0 -0 -0 -0 -0 0 0 0 0 0 0 0 0 0 -0
0 0 0 0 0 0 0 0 0 0 0 0 0 0 0 0 0 0 0 0 0 0 -0 0 0 0 0 0 0 0 -0 -0 0 0 0 0 0 0 0 0 0 0 0 -0
0 0 0 0 0 0 0 0 0 0 0 0 0 0 0 0 0 0 0 -0 0 0 -0 -0 0 0 0 0 0 0 -0 0 0 0 0 0 0 0 0 0 0 0 0 0
0 0 0 0 0 0 0 0 0 0 0 0 0 0 0 0 0 0 0 0 0 -0 0 -0 -0 -0 0 0 0 0 0 0 0 0 0 0 0 0 0 0 0 0 0 0
0 0 0 0 0 0 0 0 0 0 0 0 0 0 0 0 0 0 0 0 0 -0 0 -0 -0 -0 -0 0 0 0 0 0 0 0 0 1 0 0 0 0 0 0 0 0
0 0 0 0 0 0 0 0 0 0 0 0 0 0 0 0 0 0 0 0 -0 -0 0 0 0 0 0 0 0 0 0 0 0 0 0 0 0 0 0 0 0 0 0 0
0 0 0 0 0 0 0 0 0 0 0 0 0 0 0 0 0 0 0 0 0 0 -0 -0 0 0 0 0 0 0 0 0 0 0 0 0 0 0 0 0 0 0 0 0
0 0 0 0 0 0 0 0 0 0 0 0 0 0 0 0 0 0 0 0 0 0 0 0 0 0 0 0 0 0 0 0 0 0 0 0 0 0 0 0 0 0 0 0
0 0 0 0 0 0 0 0 0 0 0 0 0 0 0 0 0 0 0 0 0 0 0 0 0 0 0 0 0 0 0 0 0 0 0 0 0 0 0 0 0 0 0 0
0 0 0 0 0 0 0 0 0 0 0 0 0 0 0 0 0 0 0 0 0 0 -0 -0 0 -0 0 0 0 0 -0 -0 0 0 0 0 0 0 0 0 0 0 0 0
0 0 0 0 0 0 0 0 0 0 0 0 0 0 0 0 0 0 0 0 0 0 0 -0 -0 0 -0 0 0 0 -0 0 0 0 0 0 0 0 0 0 0 0 0 0
-0 0 0 0 0 0 0 0 0 0 0 0 0 0 0 0 0 -0 -0 0 0 0 0 0 -0 -0 -0 0 0 0 0 -0 -0 0 0 0 0 0 0 0 0 0 0 0
-0 0 0 0 0 0 0 0 0 0 0 0 0 0 0 0 0 0 0 0 0 0 0 0 0 -0 -0 -0 0 0 0 0 0 0 0 0 0 0 0 0 0 0 -0 0
0 0 0 0 0 0 0 0 0 0 0 0 0 0 0 0 0 0 -0 0 0 0 0 0 0 0 -0 -0 -0 0 0 0 0 0 0 0 0 0 0 0 0 0 0 -0
0 0 0 0 0 0 0 0 0 0 0 0 0 0 0 0 0 0 0 0 0 0 0 0 0 -0 -0 0 0 -0 0 -0 -0 0 0 0 0 0 0 0 0 0 0 0
0 0 0 0 0 0 0 0 0 0 0 0 0 0 0 0 0 0 0 0 0 0 0 0 0 0 0 0 0 0 -0 0 0 -0 -0 0 0 0 0 0 0 0 0 -0
0 0 0 0 0 0 0 0 0 0 0 0 0 0 0 0 0 0 0 0 0 0 0 0 0 0 0 0 0 0 -0 -0 0 0 -0 -0 0 0 0 0 0 0 0 0
0 0 0 0 0 0 0 0 0 0 0 0 0 0 0 0 0 0 0 0 0 0 0 0 -0 0 0 -0 -0 -0 -0 -0 0 0 0 0 0 -0 0 0 0 0 0 0
0 0 0 0 0 0 0 0 0 0 0 0 0 0 0 0 0 0 0 0 0 0 0 0 0 0 0 -0 -0 0 0 -0 -0 -0 -0 0 0 0 0 -0 0 0 0 0
0 0 0 0 0 0 0 0 0 0 0 0 0 0 0 0 0 0 0 0 0 0 0 0 0 0 0 -0 -0 -0 -0 -0 -0 -0 -0 -0 -0 0 0 0 0 0 0 0
0 0 0 0 0 0 0 0 0 0 0 0 0 0 0 0 0 0 0 0 0 0 0 0 0 0 -0 -0 -0 -0 -0 -0 -0 -0 -0 -0 -0 -0 -0 -0 0 -0 0 0
0 0 0 0 0 0 0 0 0 0 0 0 0 0 0 0 0 0 0 0 0 0 0 0 0 0 0 -0 -0 -0 -0 -0 -0 -0 -0 -0 -0 -0 -0 -0 -0 -0 0 0
0 0 0 0 0 0 0 0 0 0 0 0 0 0 0 0 0 0 0 0 0 0 0 0 0 0 0 -0 0 -0 0 0 0 -0 -0 -0 -0 -0 -0 -0 -0 -0 -0 -0
Wind_Speed_500mb
58 60 60 61 61 64 62 27 7 41 44 18 9 5 13 16 19 22 11 6 5 4 3 3 4 8 8 14 3 3 2 7 10 17 27 38 19 15 22 16 18 8 7 32
57 58 56 55 51 52 54 32 12 24 37 8 7 14 10 10 14 10 11 9 15 6 5 6 3 1 5 16 5 7 2 1 7 18 5 10 12 15 20 15 6 19 18 24
58 56 52 49 44 39 39 14 8 12 25 20 6 11 9 11 18 9 12 9 18 17 6 4 3 6 7 4 10 10 10 5 10 11 6 16 23 44 44 8 10 31 35 7
56 51 46 42 38 30 22 10 3 6 7 4 5 6 8 14 9 11 7 6 3 9 9 10 9 8 5 6 19 7 5 5 14 17 21 33 41 51 54 30 29 17 28 23
52 46 40 36 34 24 11 8 6 3 7 12 16 7 5 15 11 6 8 8 19 14 13 16 20 15 5 10 5 6 3 3 5 11 21 47 42 46 38 44 37 33 26 23
44 39 35 31 25 18 6 4 5 4 4 5 6 5 6 11 27 16 14 13 16 18 27 36 34 42 32 19 13 9 8 4 4 11 15 33 19 13 25 24 27 8 15 5
39 35 33 26 16 13 10 8 11 3 4 4 5 9 25 24 25 16 30 37 7 18 53 56 44 49 41 35 22 26 13 8 5 7 16 10 18 25 16 33 40 43 33 27
40 37 33 25 14 12 13 13 9 5 4 11 16 19 14 25 25 11 23 12 39 41 29 7 10 8 5 16 25 26 13 9 6 3 10 15 5 14 20 13 26 41 35 39
43 40 37 26 15 8 12 14 13 14 4 7 16 11 17 7 8 10 11 36 22 22 6 4 5 6 2 7 13 24 14 10 3 2 10 10 10 31 53 25 16 40 44 39
47 44 34 18 6 4 7 9 7 10 5 10 14 9 6 8 7 7 15 29 15 24 5 5 5 5 5 2 19 15 10 7 9 15 10 5 20 52 50 11 3 33 45 51
49 37 21 9 3 2 4 1 3 11 5 21 14 25 16 13 9 3 13 14 9 9 12 5 6 6 8 6 11 8 7 4 1 6 8 7 46 22 14 6 17 28 42 48
34 23 17 9 2 5 8 5 5 4 16 13 21 20 17 20 11 15 3 7 6 6 6 5 6 5 9 19 9 14 8 6 3 3 6 17 39 35 34 18 18 31 42 53
25 25 16 9 15 13 12 9 8 7 7 14 11 17 28 29 11 20 7 4 8 5 10 7 4 6 8 8 11 9 14 28 6 14 13 35 56 20 36 35 35 40 40 45
26 21 16 18 21 16 10 7 10 9 3 3 5 19 31 26 18 3 8 12 9 12 8 7 5 5 13 6 5 8 9 14 10 9 11 50 18 61 64 60 43 45 49 44
22 17 19 17 15 15 12 8 9 1 3 5 7 11 23 19 13 8 1 3 2 6 6 6 4 3 8 6 5 6 28 10 8 6 37 26 47 71 56 49 39 37 46 60
17 11 11 14 8 3 6 5 3 4 6 7 8 16 8 13 16 15 10 12 13 8 7 5 5 5 11 4 6 22 39 44 40 18 55 52 45 50 43 42 38 31 35 43
13 11 7 6 5 8 7 7 12 6 4 3 2 6 11 21 7 3 7 13 10 6 5 3 3 4 4 1 8 38 40 52 45 53 46 28 37 36 35 37 30 28 31 35
9 11 9 8 9 8 8 12 9 6 4 2 0 6 10 7 7 2 9 4 4 9 5 4 4 4 4 3 28 42 31 50 37 57 49 44 48 48 45 38 31 26 28 29
13 13 13 16 8 8 14 18 11 7 7 3 3 4 7 6 7 4 7 8 6 6 4 7 6 6 8 16 41 47 38 34 50 51 40 47 56 58 61 53 46 20 11 20
13 10 6 6 8 19 20 6 5 5 4 5 9 8 6 7 4 3 3 8 3 5 5 4 6 4 22 38 46 42 36 38 51 52 61 53 60 69 69 64 53 40 27 24
10 8 5 16 21 9 4 5 5 2 6 10 12 17 7 9 5 4 6 3 1 2 4 4 4 5 17 48 47 46 38 28 40 54 57 55 61 66 66 69 62 49 26 22
15 15 20 11 5 3 3 6 2 5 6 7 7 9 10 5 6 4 9 3 5 1 5 3 8 7 39 44 43 49 39 34 36 48 62 73 64 60 62 67 68 62 52 29
14 2 4 5 2 9 6 8 9 7 10 13 21 8 8 9 10 3 3 1 6 16 6 1 6 28 37 38 38 46 38 35 31 34 46 57 66 64 62 64 60 67 73 62
4 5 8 6 3 3 7 7 8 25 20 41 21 7 6 7 6 5 5 1 6 5 7 6 6 20 27 33 34 44 36 32 34 30 34 43 53 65 74 78 70 69 69 69
5 5 5 5 2 6 9 13 20 29 35 28 7 7 3 6 7 5 6 7 5 3 6 6 15 18 24 31 32 40 29 25 29 33 27 33 36 44 56 69 67 66 60 61
6 8 1 4 4 9 8 16 22 31 29 7 8 7 6 7 4 7 5 5 5 6 6 23 11 16 20 27 31 32 18 18 21 25 30 23 27 29 33 40 48 55 56 56
6 9 14 17 13 13 10 14 17 22 20 4 7 8 4 3 6 4 1 7 6 15 21 7 13 18 23 21 28 24 9 13 14 17 20 24 21 28 25 21 29 35 40 44
Wind_Direction_500mb
339 338 343 345 347 349 356 3 15 348 4 50 25 34 319 316 4 2 351 3 34 322 316 270 198 173 193 89 158 343 103 231 280 255 274 297 256 278 205 204 219 246 224 244
337 336 342 343 348 352 352 343 321 1 12 62 345 316 308 321 338 329 16 346 20 348 287 285 224 8 199 137 139 160 138 93 325 329 20 45 26 328 354 324 109 209 214 247
334 335 339 339 346 353 352 357 357 15 56 71 37 341 294 334 340 58 17 2 27 324 282 216 288 248 239 192 172 92 154 218 242 208 318 327 296 303 302 268 283 228 237 242
331 333 337 336 341 353 354 12 50 28 337 351 307 238 274 324 0 356 1 48 247 306 290 310 217 231 299 296 127 95 83 250 243 258 282 289 280 277 280 274 252 241 239 231
331 334 336 338 338 357 4 14 19 24 289 314 329 338 305 310 347 292 261 199 294 282 231 229 277 286 177 224 22 100 6 298 325 261 293 281 268 266 266 256 258 269 252 253
338 337 337 338 334 350 12 27 296 280 289 292 315 326 308 301 308 292 275 308 299 274 253 262 255 267 248 237 163 156 135 137 261 276 298 314 258 261 332 70 38 315 234 301
341 339 336 332 325 312 305 297 294 214 282 241 244 273 295 293 310 297 285 294 259 280 306 298 275 255 246 234 211 168 144 131 251 275 318 220 137 42 334 62 43 23 7 0
343 340 332 334 316 281 284 281 269 220 260 254 283 282 294 303 302 276 288 304 317 313 302 321 352 327 277 237 211 197 148 144 208 98 288 286 323 41 342 345 34 17 358 14
341 334 334 330 309 277 264 271 266 251 259 243 276 309 304 304 317 316 286 332 343 359 28 354 251 258 24 277 145 160 132 190 125 84 256 211 335 333 314 268 39 3 4 3
337 335 334 338 344 282 248 266 275 247 251 298 306 262 280 268 273 284 291 337 336 9 332 308 318 260 272 163 162 166 178 147 211 231 258 223 341 323 313 155 91 351 6 8
340 339 348 8 34 175 177 121 315 244 258 298 287 307 268 265 231 258 319 334 0 335 0 341 315 325 334 340 41 76 88 158 273 277 239 198 14 345 33 8 354 358 358 359
352 3 10 13 88 141 137 126 147 221 250 282 321 327 341 348 276 250 324 301 340 342 324 355 315 333 338 343 38 12 65 351 301 312 296 321 337 319 301 315 352 348 341 342
12 8 10 49 105 129 131 155 170 206 261 291 340 358 354 359 344 220 205 272 331 323 335 318 309 350 345 355 21 19 9 15 11 319 30 331 325 30 344 339 328 321 324 326
19 30 51 95 101 105 90 68 153 166 234 318 352 332 1 22 28 138 217 278 293 307 339 37 36 343 4 342 323 26 318 295 294 253 306 317 237 326 325 327 327 329 321 320
33 54 67 83 99 91 77 63 78 126 219 278 310 333 9 21 47 64 53 295 69 45 39 46 25 10 332 320 297 353 342 341 347 313 299 292 290 305 323 319 324 322 319 312
38 56 78 73 82 62 44 349 360 330 291 343 15 338 331 20 68 81 100 83 75 74 56 21 6 5 338 354 20 352 345 349 341 303 316 313 313 317 325 321 318 319 315 297
37 34 67 79 68 22 10 341 314 318 268 331 232 285 288 314 330 17 52 60 69 92 93 65 278 300 23 209 12 338 354 350 352 0 356 349 348 332 337 328 316 287 274 280
20 6 8 359 348 335 325 331 342 269 292 292 246 270 295 273 291 26 18 25 71 50 96 342 328 301 275 62 338 344 352 5 357 6 11 360 358 3 358 351 337 292 259 263
351 339 314 302 308 317 318 305 297 283 271 281 250 219 252 239 253 332 21 13 57 10 93 5 13 333 34 307 337 345 354 9 4 1 13 14 11 10 5 3 0 326 282 300
347 334 320 300 301 307 312 299 309 284 255 243 246 227 269 214 218 35 71 8 29 20 27 31 40 328 330 348 358 360 359 16 19 8 13 12 16 16 13 10 12 2 338 326
345 341 308 304 315 305 311 293 243 240 272 230 245 224 239 218 174 194 172 194 68 13 10 19 9 322 304 348 358 9 10 11 24 33 32 29 26 23 22 22 23 24 9 338
308 303 302 295 289 289 279 243 270 203 259 242 232 312 217 195 198 148 184 185 191 31 152 57 344 291 326 345 357 7 10 9 21 31 34 36 34 34 30 29 29 31 44 68
314 256 266 263 168 22 57 319 306 323 297 292 314 280 166 154 194 167 155 50 46 127 42 5 227 291 329 346 357 3 7 4 8 22 32 34 40 34 33 32 38 43 44 57
266 212 300 174 302 225 212 210 232 306 289 327 328 167 168 166 155 207 65 72 95 62 25 285 276 318 330 344 356 1 4 3 5 5 18 29 35 36 29 29 34 38 45 49
256 220 254 194 195 242 258 302 309 336 331 331 143 87 103 13 67 48 82 42 5 102 236 256 311 331 330 343 357 3 3 7 7 12 2 15 20 29 38 34 25 37 38 44
250 240 265 203 234 276 285 302 320 356 353 4 39 61 54 29 80 52 34 88 232 257 250 320 284 313 326 335 349 355 8 9 7 22 30 358 356 3 23 45 44 38 35 33
248 243 239 245 256 238 256 281 319 340 15 46 58 49 356 357 54 32 61 181 226 306 320 307 304 312 332 320 339 357 35 28 24 10 10 20 16 17 11 17 31 37 39 32
Wind_Speed_850mb
58 60 60 61 61 64 62 27 7 41 44 18 9 5 13 16 19 22 11 6 5 4 3 3 4 8 8 14 3 3 2 7 10 17 27 38 19 15 22 16 18 8 7 32
57 58 56 55 51 52 54 32 12 24 37 8 7 14 10 10 14 10 11 9 15 6 5 6 3 1 5 16 5 7 2 1 7 18 5 10 12 15 20 15 6 19 18 24
58 56 52 49 44 39 39 14 8 12 25 20 6 11 9 11 18 9 12 9 18 17 6 4 3 6 7 4 10 10 10 5 10 11 6 16 23 44 44 8 10 31 35 7
56 51 46 42 38 30 22 10 3 6 7 4 5 6 8 14 9 11 7 6 3 9 9 10 9 8 5 6 19 7 5 5 14 17 21 33 41 51 54 30 29 17 28 23
52 46 40 36 34 24 11 8 6 3 7 12 16 7 5 15 11 6 8 8 19 14 13 16 20 15 5 10 5 6 3 3 5 11 21 47 42 46 38 44 37 33 26 23
44 39 35 31 25 18 6 4 5 4 4 5 6 5 6 11 27 16 14 13 16 18 27 36 34 42 32 19 13 9 8 4 4 11 15 33 19 13 25 24 27 8 15 5
39 35 33 26 16 13 10 8 11 3 4 4 5 9 25 24 25 16 30 37 7 18 53 56 44 49 41 35 22 26 13 8 5 7 16 10 18 25 16 33 40 43 33 27
40 37 33 25 14 12 13 13 9 5 4 11 16 19 14 25 25 11 23 12 39 41 29 7 10 8 5 16 25 26 13 9 6 3 10 15 5 14 20 13 26 41 35 39
43 40 37 26 15 8 12 14 13 14 4 7 16 11 17 7 8 10 11 36 22 22 6 4 5 6 2 7 13 24 14 10 3 2 10 10 10 31 53 25 16 40 44 39
47 44 34 18 6 4 7 9 7 10 5 10 14 9 6 8 7 7 15 29 15 24 5 5 5 5 5 2 19 15 10 7 9 15 10 5 20 52 50 11 3 33 45 51
49 37 21 9 3 2 4 1 3 11 5 21 14 25 16 13 9 3 13 14 9 9 12 5 6 6 8 6 11 8 7 4 1 6 8 7 46 22 14 6 17 28 42 48
34 23 17 9 2 5 8 5 5 4 16 13 21 20 17 20 11 15 3 7 6 6 6 5 6 5 9 19 9 14 8 6 3 3 6 17 39 35 34 18 18 31 42 53
25 25 16 9 15 13 12 9 8 7 7 14 11 17 28 29 11 20 7 4 8 5 10 7 4 6 8 8 11 9 14 28 6 14 13 35 56 20 36 35 35 40 40 45
26 21 16 18 21 16 10 7 10 9 3 3 5 19 31 26 18 3 8 12 9 12 8 7 5 5 13 6 5 8 9 14 10 9 11 50 18 61 64 60 43 45 49 44
22 17 19 17 15 15 12 8 9 1 3 5 7 11 23 19 13 8 1 3 2 6 6 6 4 3 8 6 5 6 28 10 8 6 37 26 47 71 56 49 39 37 46 60
17 11 11 14 8 3 6 5 3 4 6 7 8 16 8 13 16 15 10 12 13 8 7 5 5 5 11 4 6 22 39 44 40 18 55 52 45 50 43 42 38 31 35 43
13 11 7 6 5 8 7 7 12 6 4 3 2 6 11 21 7 3 7 13 10 6 5 3 3 4 4 1 8 38 40 52 45 53 46 28 37 36 35 37 30 28 31 35
9 11 9 8 9 8 8 12 9 6 4 2 0 6 10 7 7 2 9 4 4 9 5 4 4 4 4 3 28 42 31 50 37 57 49 44 48 48 45 38 31 26 28 29
13 13 13 16 8 8 14 18 11 7 7 3 3 4 7 6 7 4 7 8 6 6 4 7 6 6 8 16 41 47 38 34 50 51 40 47 56 58 61 53 46 20 11 20
13 10 6 6 8 19 20 6 5 5 4 5 9 8 6 7 4 3 3 8 3 5 5 4 6 4 22 38 46 42 36 38 51 52 61 53 60 69 69 64 53 40 27 24
10 8 5 16 21 9 4 5 5 2 6 10 12 17 7 9 5 4 6 3 1 2 4 4 4 5 17 48 47 46 38 28 40 54 57 55 61 66 66 69 62 49 26 22
15 15 20 11 5 3 3 6 2 5 6 7 7 9 10 5 6 4 9 3 5 1 5 3 8 7 39 44 43 49 39 34 36 48 62 73 64 60 62 67 68 62 52 29
14 2 4 5 2 9 6 8 9 7 10 13 21 8 8 9 10 3 3 1 6 16 6 1 6 28 37 38 38 46 38 35 31 34 46 57 66 64 62 64 60 67 73 62
4 5 8 6 3 3 7 7 8 25 20 41 21 7 6 7 6 5 5 1 6 5 7 6 6 20 27 33 34 44 36 32 34 30 34 43 53 65 74 78 70 69 69 69
5 5 5 5 2 6 9 13 20 29 35 28 7 7 3 6 7 5 6 7 5 3 6 6 15 18 24 31 32 40 29 25 29 33 27 33 36 44 56 69 67 66 60 61
6 8 1 4 4 9 8 16 22 31 29 7 8 7 6 7 4 7 5 5 5 6 6 23 11 16 20 27 31 32 18 18 21 25 30 23 27 29 33 40 48 55 56 56
6 9 14 17 13 13 10 14 17 22 20 4 7 8 4 3 6 4 1 7 6 15 21 7 13 18 23 21 28 24 9 13 14 17 20 24 21 28 25 21 29 35 40 44
Wind_Direction_850mb
339 338 343 345 347 349 356 3 15 348 4 50 25 34 319 316 4 2 351 3 34 322 316 270 198 173 193 89 158 343 103 231 280 255 274 297 256 278 205 204 219 246 224 244
337 336 342 343 348 352 352 343 321 1 12 62 345 316 308 321 338 329 16 346 20 348 287 285 224 8 199 137 139 160 138 93 325 329 20 45 26 328 354 324 109 209 214 247
334 335 339 339 346 353 352 357 357 15 56 71 37 341 294 334 340 58 17 2 27 324 282 216 288 248 239 192 172 92 154 218 242 208 318 327 296 303 302 268 283 228 237 242
331 333 337 336 341 353 354 12 50 28 337 351 307 238 274 324 0 356 1 48 247 306 290 310 217 231 299 296 127 95 83 250 243 258 282 289 280 277 280 274 252 241 239 231
331 334 336 338 338 357 4 14 19 24 289 314 329 338 305 310 347 292 261 199 294 282 231 229 277 286 177 224 22 100 6 298 325 261 293 281 268 266 266 256 258 269 252 253
338 337 337 338 334 350 12 27 296 280 289 292 315 326 308 301 308 292 275 308 299 274 253 262 255 267 248 237 163 156 135 137 261 276 298 314 258 261 332 70 38 315 234 301
341 339 336 332 325 312 305 297 294 214 282 241 244 273 295 293 310 297 285 294 259 280 306 298 275 255 246 234 211 168 144 131 251 275 318 220 137 42 334 62 43 23 7 0
343 340 332 334 316 281 284 281 269 220 260 254 283 282 294 303 302 276 288 304 317 313 302 321 352 327 277 237 211 197 148 144 208 98 288 286 323 41 342 345 34 17 358 14
341 334 334 330 309 277 264 271 266 251 259 243 276 309 304 304 317 316 286 332 343 359 28 354 251 258 24 277 145 160 132 190 125 84 256 211 335 333 314 268 39 3 4 3
337 335 334 338 344 282 248 266 275 247 251 298 306 262 280 268 273 284 291 337 336 9 332 308 318 260 272 163 162 166 178 147 211 231 258 223 341 323 313 155 91 351 6 8
340 339 348 8 34 175 177 121 315 244 258 298 287 307 268 265 231 258 319 334 0 335 0 341 315 325 334 340 41 76 88 158 273 277 239 198 14 345 33 8 354 358 358 359
352 3 10 13 88 141 137 126 147 221 250 282 321 327 341 348 276 250 324 301 340 342 324 355 315 333 338 343 38 12 65 351 301 312 296 321 337 319 301 315 352 348 341 342
12 8 10 49 105 129 131 155 170 206 261 291 340 358 354 359 344 220 205 272 331 323 335 318 309 350 345 355 21 19 9 15 11 319 30 331 325 30 344 339 328 321 324 326
19 30 51 95 101 105 90 68 153 166 234 318 352 332 1 22 28 138 217 278 293 307 339 37 36 343 4 342 323 26 318 295 294 253 306 317 237 326 325 327 327 329 321 320
33 54 67 83 99 91 77 63 78 126 219 278 310 333 9 21 47 64 53 295 69 45 39 46 25 10 332 320 297 353 342 341 347 313 299 292 290 305 323 319 324 322 319 312
38 56 78 73 82 62 44 349 360 330 291 343 15 338 331 20 68 81 100 83 75 74 56 21 6 5 338 354 20 352 345 349 341 303 316 313 313 317 325 321 318 319 315 297
37 34 67 79 68 22 10 341 314 318 268 331 232 285 288 314 330 17 52 60 69 92 93 65 278 300 23 209 12 338 354 350 352 0 356 349 348 332 337 328 316 287 274 280
20 6 8 359 348 335 325 331 342 269 292 292 246 270 295 273 291 26 18 25 71 50 96 342 328 301 275 62 338 344 352 5 357 6 11 360 358 3 358 351 337 292 259 263
351 339 314 302 308 317 318 305 297 283 271 281 250 219 252 239 253 332 21 13 57 10 93 5 13 333 34 307 337 345 354 9 4 1 13 14 11 10 5 3 0 326 282 300
347 334 320 300 301 307 312 299 309 284 255 243 246 227 269 214 218 35 71 8 29 20 27 31 40 328 330 348 358 360 359 16 19 8 13 12 16 16 13 10 12 2 338 326
345 341 308 304 315 305 311 293 243 240 272 230 245 224 239 218 174 194 172 194 68 13 10 19 9 322 304 348 358 9 10 11 24 33 32 29 26 23 22 22 23 24 9 338
308 303 302 295 289 289 279 243 270 203 259 242 232 312 217 195 198 148 184 185 191 31 152 57 344 291 326 345 357 7 10 9 21 31 34 36 34 34 30 29 29 31 44 68
314 256 266 263 168 22 57 319 306 323 297 292 314 280 166 154 194 167 155 50 46 127 42 5 227 291 329 346 357 3 7 4 8 22 32 34 40 34 33 32 38 43 44 57
266 212 300 174 302 225 212 210 232 306 289 327 328 167 168 166 155 207 65 72 95 62 25 285 276 318 330 344 356 1 4 3 5 5 18 29 35 36 29 29 34 38 45 49
256 220 254 194 195 242 258 302 309 336 331 331 143 87 103 13 67 48 82 42 5 102 236 256 311 331 330 343 357 3 3 7 7 12 2 15 20 29 38 34 25 37 38 44
250 240 265 203 234 276 285 302 320 356 353 4 39 61 54 29 80 52 34 88 232 257 250 320 284 313 326 335 349 355 8 9 7 22 30 358 356 3 23 45 44 38 35 33
248 243 239 245 256 238 256 281 319 340 15 46 58 49 356 357 54 32 61 181 226 306 320 307 304 312 332 320 339 357 35 28 24 10 10 20 16 17 11 17 31 37 39 32